Location: Gönnheim
(49.4488°N, 8.2383°E)
Time: 00:27:00
(UTC+00:00)

Cosmos 2184 Rocket - Pass Details

Date: 19 May 2025
Orbit: 959 x 1000 km, 82.9° (Epoch: 22 June)

Event Time Altitude Azimuth Distance (km) Brightness Sun altitude
Rises 19:52:26 0° 349° (N) 3,676 8.0 -6.3°
Reaches altitude 10° 19:54:56 10° 348° (NNW) 2,730 7.3 -6.6°
Maximum altitude 20:01:11 78° 264° (W) 1,007 4.2 -7.4°
Drops below altitude 10° 20:07:28 10° 179° (S) 2,740 5.9 -8.1°
Sets 20:09:59 0° 178° (S) 3,690 6.6 -8.4°
